Overview Statistics Trail Chart Weather Telemetry Raw packets
 

This is the latest recevied weather packets stored in our database for station/object KG5MMT-12. If no packets are shown the sender has not sent any weather packets the latest 10 day(s).

<< 34 35 36 37 38 39 40 >>
Time Temp. Humidity Pressure Rain* Wind** Luminosity Snow
1788459243 26.67° C 28% 0 hPa 0 mm - - -
1788458943 26.67° C 26% 0 hPa 0 mm - - -
1788458643 27.22° C 29% 0 hPa 0 mm - - -
1788458343 26.67° C 28% 0 hPa 0 mm - - -
1788458043 26.67° C 27% 0 hPa 0 mm - - -
1788457743 26.67° C 27% 0 hPa 0 mm - - -
1788457443 26.67° C 28% 0 hPa 0 mm - - -
1788457143 26.67° C 29% 0 hPa 0 mm - - -
1788456843 26.67° C 29% 0 hPa 0 mm - - -
1788456543 26.67° C 28% 0 hPa 0 mm - - -
1788456243 26.67° C 31% 0 hPa 0 mm - - -
1788455943 26.67° C 30% 0 hPa 0 mm - - -
1788455643 26.11° C 29% 0 hPa 0 mm - - -
1788455343 26.11° C 30% 0 hPa 0 mm - - -
1788455043 26.11° C 30% 0 hPa 0 mm - - -
1788454743 25.56° C 30% 0 hPa 0 mm - - -
1788454443 25.56° C 31% 0 hPa 0 mm - - -
1788454143 25.56° C 31% 0 hPa 0 mm - - -
1788453843 25.56° C 31% 0 hPa 0 mm - - -
1788453543 25.56° C 30% 0 hPa 0 mm - - -
1788453243 25.56° C 31% 0 hPa 0 mm - - -
1788452943 25° C 33% 0 hPa 0 mm - - -
1788452643 25° C 35% 0 hPa 0 mm - - -
1788452343 25° C 34% 0 hPa 0 mm - - -
1788452043 25° C 32% 0 hPa 0 mm - - -

* Rain latest hour (hover to see other rain measurements)
** Current wind speed in m/s (hover to see current wind gust speed)